Weather History for KAKO - July, 2012

Change the Weather History Date:

Saturday, July 21, 2012

  Actual Average Record
Temperature  
Mean Temperature 86 °F 75 °F  
Max Temperature 101 °F 89 °F 103 °F (2005)
Min Temperature 71 °F 60 °F 48 °F (1949)
Degree Days  
Heating Degree Days 0    
Month to date heating degree days 0  
Cooling Degree Days 21    
Month to date cooling degree days 289  
Growing Degree Days 36 (Base 50)    
Moisture  
Dew Point 42 °F    
Average Humidity 25    
Maximum Humidity 38    
Minimum Humidity 11    
Precipitation  
Precipitation 0.00 in 0.09 in 2.30 in (1974)
Month to date precipitation 1.60 1.65  
Year to date precipitation 4.94 10.29  
Sea Level Pressure  
Sea Level Pressure 29.91 in    
Wind  
Wind Speed 12 mph (SSW)    
Max Wind Speed 23 mph    
Max Gust Speed 29 mph    
Visibility 10 miles    
Events      
T = Trace of Precipitation, MM = Missing Value Source: NWS Daily Summary

Daily Weather History Graph

Daily Weather History Graph

Search for Another Location

Airport or City:

Trip Planner

Search our weather history database for the weather conditions in past years. The results will help you decide how hot, cold, wet, or windy it might be!

Date:

Astronomy

Jul. 21, 2012 Rise Set
Actual Time 5:41 AM MDT 8:16 PM MDT
Civil Twilight 5:10 AM MDT 8:47 PM MDT
Nautical Twilight 4:30 AM MDT 9:26 PM MDT
Astronomical Twilight 3:46 AM MDT 10:10 PM MDT
Moon 8:25 AM MDT (7/21) 9:29 PM MDT (7/21)
Length of Visible Light 15h 37m
Length of Day
14h 35m
Waxing Crescent, 7% of the Moon is Illuminated
Jul 21
Waxing Crescent
Jul 26
First Quarter
Aug 1
Full
Aug 9
Last Quarter
Aug 17
New

Hourly Weather History & Observations

Time (MDT) Temp. Dew Point Humidity Pressure Visibility Wind Dir Wind Speed Gust Speed Precip Events Conditions
12:53 AM 75.0 °F 46.9 °F 37% 29.94 in 10.0 mi South 12.7 mph - N/A   Clear
1:53 AM 73.0 °F 45.0 °F 37% 29.95 in 10.0 mi South 9.2 mph - N/A   Clear
2:53 AM 72.0 °F 44.1 °F 37% 29.94 in 10.0 mi South 10.4 mph - N/A   Clear
4:53 AM 75.9 °F 44.1 °F 32% 29.94 in 10.0 mi SW 10.4 mph - N/A   Clear
5:53 AM 73.0 °F 45.0 °F 37% 29.96 in 10.0 mi SW 11.5 mph - N/A   Clear
6:53 AM 77.0 °F 46.0 °F 33% 29.95 in 10.0 mi SW 11.5 mph - N/A   Clear
7:53 AM 79.0 °F 45.0 °F 30% 29.97 in 10.0 mi WSW 10.4 mph - N/A   Clear
8:53 AM 86.0 °F 46.0 °F 25% 29.98 in 10.0 mi SW 12.7 mph - N/A   Clear
9:53 AM 91.9 °F 45.0 °F 20% 29.96 in 10.0 mi SSW 9.2 mph - N/A   Clear
10:53 AM 95.0 °F 42.1 °F 16% 29.96 in 10.0 mi South 15.0 mph 21.9 mph N/A   Clear
11:53 AM 97.0 °F 41.0 °F 14% 29.94 in 10.0 mi South 15.0 mph 23.0 mph N/A   Clear
12:53 PM 98.1 °F 42.1 °F 15% 29.92 in 10.0 mi South 15.0 mph 21.9 mph N/A   Clear
1:53 PM 99.0 °F 39.0 °F 13% 29.91 in 10.0 mi SSW 13.8 mph 21.9 mph N/A   Clear
2:53 PM 100.0 °F 37.9 °F 12% 29.89 in 10.0 mi SSE 10.4 mph 19.6 mph N/A   Clear
3:53 PM 100.0 °F 36.0 °F 11% 29.86 in 10.0 mi SSW 12.7 mph 18.4 mph N/A   Clear
4:53 PM 99.0 °F 36.0 °F 11% 29.84 in 10.0 mi SSW 11.5 mph 24.2 mph N/A   Clear
5:53 PM 99.0 °F 37.9 °F 12% 29.83 in 10.0 mi South 8.1 mph - N/A   Clear
6:53 PM 96.1 °F 41.0 °F 15% 29.83 in 10.0 mi South 12.7 mph 23.0 mph N/A   Clear
7:53 PM 93.0 °F 39.9 °F 16% 29.84 in 10.0 mi South 17.3 mph - N/A   Clear
8:53 PM 87.1 °F 39.0 °F 18% 29.86 in 10.0 mi South 12.7 mph - N/A   Clear
9:53 PM 84.9 °F 41.0 °F 21% 29.88 in 10.0 mi South 18.4 mph - N/A   Clear
10:53 PM 84.0 °F 44.1 °F 25% 29.89 in 10.0 mi South 19.6 mph - N/A   Clear
11:53 PM 82.0 °F 46.0 °F 28% 29.90 in 10.0 mi South 21.9 mph 27.6 mph N/A   Clear